Home > Time Zones > World Clock > Weather > Iran > Gorgan > Past weeks

Flag for Iran Weather past 2 weeks in Gorgan, Iran

Now
79 °F

More clouds than sun.


Feels Like: 79 °F
Forecast: 62 / 79 °F
Wind: 5 mph from South

Location: Gorgan Airport

Current Time: Oct 2, 2014 at 2:08:40 PM

Latest Report: Oct 2, 2014 at 1:30 PM


Visibility: N/A

Pressure: 30.12 "Hg

Humidity: 42%

Dew point: 54 °F

Location of GorganLocation

Historic Weather in Gorgan — Graph

°F

Gorgan temperature yesterday

Maximum temperature yesterday: 79 °F (at 12:30 PM)
Minimum temperature yesterday: 66 °F (at 4:30 AM)
Average temperature yesterday: 73 °F

Past Weeks' High & Low Weather Summary

 TemperatureHumidityPressure
High99 °F (Sep 24, 2:30 PM)94% (Sep 23, 6:30 AM)30.18 "Hg (Sep 23, 6:30 AM)
Low59 °F (Sep 27, 5:30 AM)16% (Sep 24, 4:30 PM)29.59 "Hg (Sep 24, 2:30 PM)
Average75 °F67%29.94 "Hg
* Reported Sep 17 1:30 PM — Oct 2 12:30 PM, Gorgan, Weather by CustomWeather, © 2014

Note: Actual official high and low records may vary slightly from our data, if they occured in-between our weather recording intervals... More about our weather records

Advertising

Gorgan weather history for previous 24 hours

 ConditionsComfort  
Time TempWeatherWind HumidityBarometerVisibility
12:30 PM
Oct 2
79 °FPartly sunny.5 mph39%30.15 "HgN/A
11:30 AM79 °FBroken clouds.12 mph42%30.12 "HgN/A
10:30 AM77 °FPartly sunny.14 mph44%30.15 "HgN/A
9:30 AM73 °FPartly sunny.7 mph57%30.15 "HgN/A
8:30 AM72 °FMostly cloudy.7 mph65%30.15 "HgN/A
7:30 AM70 °FBroken clouds.No wind69%30.15 "HgN/A
6:30 AM68 °FMore clouds than sun.No wind78%30.12 "HgN/A
5:30 AM68 °FMostly cloudy.No wind73%30.12 "HgN/A
4:30 AM70 °FMostly cloudy.No wind73%30.12 "HgN/A
3:30 AM70 °FMostly cloudy.No wind78%30.09 "HgN/A
1:30 AM70 °FMostly cloudy.No wind78%30.09 "HgN/A
12:30 AM70 °FMostly cloudy.No wind78%30.12 "HgN/A
11:30 PM
Oct 1
70 °FMostly cloudy.7 mph83%30.12 "HgN/A
10:30 PM72 °FMostly cloudy.No wind78%30.12 "HgN/A
9:30 PM72 °FMostly cloudy.No wind78%30.12 "HgN/A
8:30 PM72 °FMostly cloudy.7 mph78%30.12 "HgN/A
7:30 PM72 °FMostly cloudy.9 mph78%30.12 "Hg4 mi
6:30 PM72 °FMostly cloudy.9 mph83%30.09 "Hg4 mi
5:30 PM73 °FMore clouds than sun.12 mph78%30.09 "HgN/A
4:30 PM75 °FMore clouds than sun.14 mph74%30.07 "HgN/A
3:30 PM77 °FMore clouds than sun.12 mph61%30.07 "HgN/A
2:30 PM79 °FBroken clouds.14 mph61%30.07 "HgN/A
Weather by CustomWeather, © 2014

See weather overviewHow to use our weather pages